Location: Dötzum
(52.0808°N, 9.8063°E)
Time: 06:32:49
(UTC+00:00)

Meteor 1-28 Rocket - Pass Details

Date: 27 May 2022
Orbit: 499 x 518 km, 97.4° (Epoch: 26 June)

Event Time Altitude Azimuth Distance (km) Brightness Sun altitude
Exits shadow 01:46:50 - 178° (S) 1,863 5.5 -9.8°
Reaches altitude 10° 01:47:09 10° 179° (S) 1,732 5.4 -9.7°
Maximum altitude 01:50:50 57° 259° (W) 605 3.3 -9.4°
Drops below altitude 10° 01:54:32 10° 339° (NNW) 1,736 6.3 -9.1°
Sets 01:56:39 0° 344° (NNW) 2,623 7.4 -8.9°
